Temp
13 13 12 12 12 12 12 12 13 13 13 12 12 12 12 12 12 11 11 11 11 11 11 11 11 11 11 10 10 10 11 11 10 10 10 10 10 10 10 9 9 9
13 13 13 12 12 12 12 13 13 13 13 13 12 12 12 12 12 12 12 11 11 11 11 11 11 11 11 10 10 10 10 10 10 10 10 10 9 9 9 9 9 9
13 13 13 13 13 13 13 13 13 14 13 13 13 13 13 13 13 12 12 12 11 11 11 11 11 11 11 10 10 10 10 10 10 10 10 10 9 9 9 9 9 9
14 14 14 13 13 13 13 13 13 14 14 14 13 13 13 13 13 13 13 12 12 11 11 11 11 11 11 11 10 10 10 10 10 10 10 10 10 9 9 9 9 9
14 14 14 14 13 13 13 13 14 14 14 14 14 13 13 13 13 13 13 12 12 12 11 11 11 11 11 11 11 10 10 10 10 10 10 10 10 9 9 9 9 9
14 14 14 14 14 13 14 14 14 14 14 14 14 14 14 13 13 13 13 13 12 12 12 11 11 11 11 11 11 11 11 10 10 10 10 10 10 9 9 9 9 9
15 15 14 14 14 14 14 14 14 14 14 14 14 14 14 14 13 13 13 13 13 12 12 12 11 11 11 11 11 11 11 11 10 10 10 10 9 9 9 9 9 9
15 15 15 15 14 14 14 15 15 14 14 14 14 14 14 14 14 13 13 13 13 12 12 12 12 12 11 11 11 11 11 11 11 11 10 10 10 9 9 9 9 8
15 15 15 15 15 15 15 15 15 15 14 14 14 14 14 14 14 14 13 13 13 13 12 12 12 12 12 12 12 11 11 11 11 11 10 10 9 9 9 9 9 8
16 15 15 15 15 15 15 15 15 15 14 14 14 14 14 14 14 14 13 13 13 13 13 12 12 12 12 12 12 12 11 11 11 11 10 10 9 9 9 9 8 8
16 16 16 16 15 15 15 15 15 15 15 14 14 14 14 14 14 14 14 13 13 13 13 13 12 12 12 12 12 12 11 11 11 11 10 10 9 9 9 8 8 8
16 16 16 16 15 15 15 15 15 15 15 14 14 14 14 14 14 14 14 13 13 13 13 13 12 12 12 12 12 12 11 11 11 11 10 10 9 9 9 8 8 8
16 16 16 16 15 15 15 15 15 15 14 14 14 14 14 14 14 14 13 13 13 13 13 13 12 12 12 12 12 12 11 11 11 10 10 9 9 9 8 8 8 8
16 16 16 15 15 15 15 15 15 14 14 14 14 14 14 14 14 13 13 13 13 13 13 12 12 12 12 12 12 11 11 11 10 10 9 9 9 8 8 8 8 8
16 16 16 15 15 15 15 14 14 14 14 14 14 14 14 14 13 13 13 13 13 13 13 12 12 12 12 12 12 11 11 10 10 9 9 8 8 8 8 8 8 7
16 16 16 15 15 15 15 14 14 14 14 14 14 14 14 13 13 13 13 13 13 13 13 13 13 12 12 12 11 11 10 9 9 9 9 8 8 8 8 8 8 7
16 16 16 15 15 15 15 14 14 14 14 14 14 14 13 13 13 13 13 13 13 13 13 13 13 13 12 12 11 10 9 9 9 9 9 9 8 8 8 8 8 7
16 16 16 16 15 15 15 14 14 14 14 14 14 14 13 13 13 13 13 13 13 13 13 13 13 13 12 12 11 9 9 9 10 10 9 9 9 8 8 8 7 7
16 16 16 16 15 15 15 15 14 14 14 14 14 14 13 13 13 13 13 13 13 13 13 13 13 13 13 12 10 9 9 9 9 9 9 9 9 8 8 8 7 6
16 16 16 16 16 15 15 15 14 14 14 14 14 14 13 13 13 13 13 13 13 13 13 13 13 13 13 12 12 11 10 9 9 9 9 9 8 8 8 7 7 6
17 16 16 16 16 15 15 15 15 14 14 14 14 14 14 14 13 13 13 13 13 13 13 13 13 13 13 13 13 13 11 8 8 9 9 9 8 8 8 7 7 6
17 17 16 16 16 16 15 15 15 14 14 14 14 14 14 14 14 13 13 13 13 13 13 13 13 13 13 13 13 13 11 9 8 9 9 9 9 8 8 7 7 7
18 17 16 16 16 16 16 15 15 15 14 14 14 14 14 14 14 14 14 13 13 13 13 13 13 13 13 13 13 13 12 10 9 9 8 8 8 8 8 7 7 7
18 17 17 16 16 16 16 15 15 15 15 14 14 14 14 14 13 13 13 13 13 13 13 13 13 13 13 13 13 12 12 11 11 9 8 8 8 8 8 7 7 7
18 18 17 17 16 16 16 15 15 15 15 14 14 14 14 14 13 13 13 13 13 13 13 13 13 13 13 13 12 12 11 11 11 10 9 9 8 8 7 7 7 6
18 18 18 17 17 16 16 15 15 15 15 14 14 14 14 14 14 14 13 13 13 13 13 13 13 13 13 12 11 11 11 11 11 11 10 9 8 8 7 7 6 6
Height
3180 3182 3183 3184 3186 3187 3189 3190 3191 3193 3194 3195 3197 3198 3200 3201 3202 3203 3204 3205 3205 3206 3207 3207 3207 3207 3207 3207 3207 3207 3207 3206 3206 3206 3205 3204 3203 3203 3202 3201 3200 3200
3177 3179 3180 3182 3183 3185 3186 3188 3189 3191 3192 3194 3195 3196 3198 3199 3200 3201 3202 3203 3204 3205 3205 3206 3206 3206 3206 3206 3206 3206 3206 3205 3205 3205 3204 3204 3203 3202 3201 3200 3199 3198
3175 3176 3177 3179 3181 3183 3184 3186 3187 3189 3190 3192 3193 3195 3196 3197 3198 3199 3200 3201 3202 3203 3203 3204 3204 3204 3204 3204 3205 3204 3204 3204 3204 3203 3203 3202 3201 3200 3199 3199 3198 3197
3172 3173 3175 3177 3179 3181 3182 3184 3185 3187 3188 3190 3191 3193 3194 3195 3196 3197 3198 3199 3200 3201 3202 3202 3202 3202 3202 3203 3203 3203 3203 3203 3202 3202 3201 3201 3200 3199 3198 3197 3197 3196
3170 3171 3173 3174 3176 3178 3179 3181 3183 3185 3186 3188 3190 3191 3192 3193 3194 3195 3196 3198 3199 3199 3200 3200 3200 3200 3200 3201 3202 3202 3201 3201 3201 3200 3200 3199 3198 3197 3197 3196 3195 3195
3167 3169 3170 3172 3174 3175 3176 3178 3180 3182 3184 3186 3187 3188 3189 3191 3192 3193 3194 3196 3197 3198 3198 3198 3199 3199 3199 3199 3199 3199 3199 3199 3199 3198 3198 3197 3196 3195 3195 3194 3194 3193
3165 3166 3168 3169 3171 3172 3174 3176 3178 3180 3182 3184 3185 3186 3187 3189 3190 3191 3192 3193 3195 3195 3196 3197 3197 3197 3197 3197 3197 3197 3197 3196 3196 3196 3196 3195 3193 3193 3192 3192 3192 3191
3163 3164 3165 3167 3168 3170 3171 3173 3175 3177 3179 3181 3183 3184 3185 3186 3188 3189 3190 3191 3192 3193 3194 3195 3195 3195 3194 3195 3195 3194 3194 3194 3193 3193 3193 3192 3191 3190 3190 3189 3189 3189
3160 3161 3163 3164 3165 3167 3169 3171 3173 3175 3177 3178 3180 3182 3183 3184 3186 3187 3188 3189 3190 3191 3192 3192 3192 3192 3192 3192 3192 3192 3192 3191 3191 3190 3190 3190 3189 3188 3188 3187 3187 3187
3157 3159 3160 3161 3163 3164 3166 3168 3170 3172 3174 3176 3178 3179 3181 3182 3184 3185 3186 3186 3187 3188 3189 3190 3190 3189 3189 3189 3190 3190 3190 3189 3189 3188 3188 3188 3188 3187 3186 3185 3185 3185
3155 3156 3157 3158 3160 3162 3164 3166 3167 3169 3171 3173 3175 3177 3179 3180 3181 3182 3183 3184 3185 3186 3186 3187 3187 3187 3187 3187 3187 3188 3188 3188 3187 3186 3185 3185 3185 3185 3184 3183 3182 3182
3152 3153 3154 3156 3158 3159 3161 3163 3165 3167 3169 3171 3172 3174 3176 3178 3179 3180 3181 3182 3183 3183 3184 3184 3184 3184 3184 3184 3185 3185 3185 3185 3185 3184 3184 3183 3183 3182 3181 3180 3180 3180
3149 3151 3152 3154 3155 3157 3159 3160 3162 3164 3165 3168 3170 3172 3173 3175 3176 3177 3178 3179 3180 3180 3181 3181 3181 3182 3182 3182 3182 3182 3183 3183 3182 3182 3182 3181 3181 3180 3179 3178 3177 3177
3147 3149 3150 3152 3153 3155 3156 3157 3159 3161 3162 3165 3167 3168 3170 3172 3173 3175 3176 3176 3177 3177 3178 3178 3178 3178 3179 3179 3179 3179 3180 3180 3180 3179 3179 3179 3179 3178 3176 3175 3175 3174
3144 3146 3148 3149 3151 3152 3153 3154 3156 3158 3160 3162 3163 3165 3167 3169 3170 3172 3172 3173 3174 3174 3174 3175 3175 3175 3175 3176 3176 3177 3178 3178 3177 3177 3176 3176 3175 3174 3173 3172 3171 3171
3142 3144 3145 3146 3148 3149 3150 3152 3154 3155 3157 3159 3160 3162 3164 3165 3167 3168 3169 3170 3171 3171 3171 3171 3171 3172 3172 3172 3173 3174 3175 3175 3174 3173 3172 3171 3170 3170 3170 3169 3169 3168
3139 3141 3142 3143 3145 3146 3148 3149 3151 3152 3154 3156 3158 3159 3161 3162 3163 3164 3166 3167 3167 3168 3168 3167 3168 3168 3168 3168 3169 3170 3171 3172 3171 3169 3167 3166 3166 3166 3166 3166 3166 3165
3135 3137 3139 3140 3142 3143 3145 3147 3148 3149 3151 3153 3155 3157 3158 3159 3160 3161 3163 3163 3164 3164 3164 3164 3165 3164 3164 3164 3162 3163 3167 3168 3167 3165 3163 3163 3162 3162 3162 3162 3162 3161
3132 3133 3135 3137 3139 3140 3142 3144 3145 3146 3147 3149 3152 3154 3155 3156 3157 3158 3160 3160 3160 3161 3161 3161 3161 3161 3161 3159 3155 3156 3161 3162 3162 3161 3161 3160 3159 3159 3158 3158 3157 3157
3127 3129 3131 3133 3135 3137 3139 3140 3141 3142 3144 3146 3148 3150 3151 3152 3154 3155 3156 3156 3157 3157 3157 3157 3158 3158 3158 3155 3150 3150 3153 3154 3156 3157 3156 3155 3155 3155 3154 3154 3153 3153
3122 3125 3127 3129 3131 3133 3134 3136 3138 3139 3141 3143 3145 3146 3147 3149 3150 3151 3152 3153 3153 3153 3154 3154 3154 3155 3154 3151 3148 3147 3145 3146 3150 3152 3151 3150 3151 3150 3150 3150 3149 3149
3117 3120 3122 3124 3126 3128 3130 3132 3133 3135 3137 3139 3141 3142 3144 3145 3146 3147 3148 3149 3149 3150 3150 3150 3151 3151 3150 3148 3147 3145 3142 3142 3144 3145 3146 3146 3146 3145 3146 3145 3145 3145
3113 3115 3117 3119 3121 3123 3125 3127 3129 3131 3133 3135 3137 3138 3140 3141 3142 3143 3144 3145 3145 3146 3146 3147 3147 3147 3146 3146 3145 3143 3142 3141 3140 3140 3141 3141 3141 3142 3142 3141 3142 3141
3108 3110 3112 3114 3116 3118 3121 3123 3125 3127 3129 3131 3133 3135 3136 3138 3138 3139 3140 3140 3141 3142 3143 3143 3144 3144 3143 3142 3141 3140 3139 3138 3138 3137 3137 3138 3138 3138 3138 3138 3138 3137
3104 3105 3107 3109 3111 3114 3116 3119 3121 3123 3125 3127 3129 3131 3132 3133 3134 3135 3135 3136 3136 3138 3139 3140 3140 3140 3139 3138 3137 3137 3135 3135 3134 3134 3134 3134 3134 3134 3133 3133 3133 3133
3100 3101 3102 3104 3106 3109 3112 3114 3117 3119 3121 3123 3125 3126 3127 3129 3130 3130 3131 3132 3133 3134 3135 3136 3136 3135 3134 3134 3134 3133 3132 3131 3131 3130 3130 3130 3129 3129 3129 3129 3129 3129
Wind_Speed
23 23 23 23 23 21 20 21 19 17 16 15 15 16 15 15 16 17 16 16 15 14 13 13 13 12 11 10 12 13 15 17 17 17 18 19 20 20 19 18 16 13
24 23 24 24 23 22 22 21 20 18 16 15 15 15 16 16 17 17 17 17 17 16 15 15 15 14 13 13 14 16 17 19 18 18 19 20 21 20 19 20 20 17
25 24 24 24 23 22 22 21 20 18 17 16 16 16 16 16 16 17 17 17 17 18 18 17 16 16 16 15 16 17 19 20 20 20 20 21 21 21 20 20 21 20
25 25 24 24 23 22 22 22 21 19 18 17 16 16 17 17 16 16 16 17 18 19 19 19 18 18 18 18 18 19 20 21 21 21 21 22 22 22 22 21 21 21
25 24 24 24 23 23 23 23 21 20 19 17 17 17 17 17 16 15 15 16 18 19 20 20 20 20 20 20 20 20 21 22 22 23 23 23 23 23 23 22 21 21
24 24 24 24 24 24 23 22 21 20 19 18 18 17 17 17 15 14 15 16 17 19 20 21 21 22 22 22 22 22 23 23 23 23 23 24 24 24 24 23 22 21
24 24 24 24 24 24 23 22 21 21 20 19 19 18 18 17 16 14 14 15 17 18 20 21 22 23 24 24 24 24 24 24 24 23 23 24 24 24 24 23 23 21
23 23 24 24 25 25 24 23 22 21 20 20 20 19 18 18 16 15 15 16 17 17 19 21 22 23 25 25 24 25 25 26 26 25 24 24 24 24 23 23 23 21
24 24 25 25 25 25 24 23 22 21 21 21 20 20 20 18 16 16 16 17 17 18 19 20 21 23 24 24 24 24 25 26 26 26 26 24 23 23 23 23 23 22
24 25 25 26 25 25 24 23 22 22 21 21 21 21 20 18 17 16 16 17 17 18 19 20 21 22 23 24 24 24 25 25 26 27 26 24 22 23 23 23 22 21
25 26 26 26 25 25 24 23 22 22 21 21 21 21 19 19 18 17 17 16 16 17 18 20 20 21 22 23 24 23 23 24 25 26 26 24 23 23 24 24 23 22
26 26 26 26 25 24 24 23 22 22 21 22 21 20 19 19 19 18 17 15 15 16 18 18 19 19 20 21 22 22 22 23 24 25 25 24 25 24 24 24 23 23
27 27 26 25 24 24 23 23 23 22 22 22 21 20 20 19 19 17 16 15 16 16 17 17 18 18 19 21 22 22 23 23 24 25 25 25 25 24 24 24 24 23
28 27 26 25 24 24 24 24 23 23 22 22 21 21 20 19 18 17 16 16 16 16 17 18 18 19 20 21 22 22 23 24 25 26 26 25 25 24 23 23 24 24
29 27 26 26 26 25 25 25 24 24 23 22 22 21 20 19 18 18 18 18 17 18 18 19 19 19 20 21 22 23 24 25 26 27 27 27 27 26 23 22 23 25
30 28 28 28 27 27 26 25 24 24 23 23 23 21 20 20 19 19 19 18 18 19 19 19 20 20 21 22 23 23 24 25 26 26 27 28 28 27 26 25 25 25
32 30 29 29 28 27 27 26 25 25 25 24 23 22 22 21 21 20 19 18 19 20 20 20 20 20 22 24 24 25 26 25 25 26 28 29 27 28 28 27 25 24
34 32 31 31 30 29 27 27 26 26 26 26 25 24 23 22 22 21 19 19 20 20 20 20 19 20 22 25 27 28 25 23 22 25 29 29 28 28 28 27 26 24
36 35 33 32 31 30 29 28 29 29 29 28 26 24 23 24 24 22 21 21 21 20 20 19 20 20 22 26 31 30 24 22 22 22 24 27 28 27 27 27 26 24
37 37 35 34 33 32 31 31 30 31 30 29 27 26 26 25 23 22 22 22 21 20 20 20 20 20 21 26 32 32 27 22 19 20 22 24 25 26 26 26 25 25
39 38 37 36 36 35 34 33 32 32 31 30 28 27 26 24 23 23 23 22 21 21 20 20 19 19 21 25 29 33 32 25 19 19 21 22 22 23 24 24 24 26
39 39 38 38 38 38 38 36 35 34 32 31 30 28 26 25 25 25 24 22 22 21 21 21 20 19 20 23 27 31 33 30 25 19 18 18 19 21 22 22 23 26
37 39 39 39 39 39 40 39 38 36 34 33 31 30 27 26 26 25 24 23 23 22 21 21 19 18 20 22 26 29 31 32 29 23 19 19 19 20 21 22 24 26
36 38 39 40 40 40 41 41 40 38 36 34 33 30 28 27 27 27 26 25 24 23 22 20 18 18 20 22 25 29 31 32 31 26 23 23 23 22 23 24 26 27
34 38 40 40 41 41 41 41 41 39 37 35 33 31 29 28 29 29 28 26 25 23 21 19 17 18 21 23 25 28 31 32 32 30 27 26 26 25 25 25 25 24
32 37 41 41 41 42 42 41 40 38 36 34 33 32 31 30 29 29 27 26 24 20 18 18 19 21 23 24 26 29 30 31 32 31 28 26 26 25 25 24 21 18
Wind_Direction
226 227 229 232 235 237 236 236 236 232 226 221 220 222 222 217 212 209 211 218 227 234 236 243 253 263 271 279 291 301 309 317 324 329 333 335 339 346 353 354 348 341
227 228 229 230 232 233 234 234 234 231 226 220 218 219 220 220 216 214 216 221 228 236 243 248 254 263 269 274 284 294 304 312 318 323 327 329 333 337 343 348 349 342
227 228 230 231 230 230 231 232 231 227 224 219 216 216 218 222 222 220 221 223 228 237 245 252 257 263 270 273 280 290 298 307 313 318 322 325 328 331 334 339 344 342
226 227 229 230 231 231 230 231 229 224 220 216 213 215 219 223 225 225 226 227 229 236 245 254 260 265 271 275 279 287 294 302 308 313 317 320 322 325 327 330 335 339
226 227 228 229 229 229 229 228 226 221 217 214 214 217 221 225 228 229 230 231 233 237 245 254 261 267 272 276 280 286 292 297 304 309 312 314 316 317 320 322 326 333
225 225 227 227 227 227 227 225 224 221 216 214 216 219 223 228 231 232 234 237 237 240 246 253 260 266 271 276 281 285 289 293 299 307 310 310 309 310 312 315 318 325
224 224 225 225 225 225 225 223 222 219 215 215 218 221 225 229 232 236 238 240 242 244 248 253 260 265 269 273 278 283 287 290 294 300 306 307 307 306 306 308 310 315
224 224 225 224 224 223 222 221 219 216 215 217 220 224 228 231 234 238 241 243 246 248 250 254 259 264 268 271 276 280 285 287 290 294 297 301 306 305 302 302 304 308
223 224 224 224 223 222 221 219 217 215 216 219 222 226 230 234 237 241 245 247 249 250 253 255 258 263 268 272 276 279 283 285 287 290 290 294 303 305 300 297 298 302
222 222 224 224 222 221 221 219 217 216 217 220 224 228 231 235 240 244 247 251 253 255 258 259 262 267 272 276 280 282 284 284 285 287 287 290 300 305 301 295 292 295
221 222 223 223 221 221 220 219 219 219 220 223 226 229 232 235 240 245 248 252 258 261 263 264 267 271 275 278 282 284 285 286 286 287 287 288 295 302 304 297 289 288
220 221 222 221 220 220 220 220 221 221 222 224 227 229 231 234 239 243 247 251 256 261 264 266 268 271 275 278 280 282 284 286 286 286 286 287 291 297 302 299 289 283
217 219 220 220 219 220 220 220 221 222 224 225 228 230 231 233 237 241 245 247 251 257 261 264 266 268 271 274 277 280 282 284 285 285 285 285 289 293 298 298 289 279
217 217 218 218 218 218 219 219 219 221 223 226 229 231 231 233 236 238 241 243 247 253 258 261 265 269 272 275 278 281 282 283 284 284 283 283 285 288 292 293 285 275
218 217 217 216 216 216 216 217 217 218 222 225 228 230 231 234 235 235 238 241 247 253 258 264 270 276 280 282 281 281 282 282 282 282 281 280 282 285 288 288 282 273
220 217 217 216 215 215 216 216 217 219 221 224 227 229 230 232 234 235 238 244 251 257 264 270 276 284 288 285 282 280 277 277 277 278 276 274 277 281 284 286 285 276
224 220 219 218 216 215 216 217 219 221 223 224 225 227 229 232 234 237 242 248 255 262 268 275 283 291 292 290 284 274 268 270 271 270 268 268 272 277 279 282 285 276
227 224 222 220 219 217 217 218 220 223 225 225 226 226 228 232 235 239 245 251 257 263 270 278 288 292 293 293 284 272 270 279 279 273 271 270 271 275 277 281 283 275
227 227 225 223 222 220 219 220 222 225 226 227 228 228 229 232 235 239 245 252 259 266 273 281 286 287 290 291 285 280 282 288 287 286 285 279 276 278 280 281 281 273
227 226 227 225 224 223 222 222 224 226 228 230 231 231 232 233 236 241 246 253 260 267 274 280 281 281 284 285 287 288 283 276 281 292 292 284 278 279 282 281 278 273
228 226 226 225 225 225 225 224 225 227 229 231 232 233 235 237 239 244 249 254 260 267 274 276 273 274 277 281 290 294 287 284 293 294 284 280 279 279 281 281 279 276
228 225 224 224 225 226 226 226 226 228 230 231 233 235 237 238 240 245 250 255 261 267 270 267 264 268 275 283 292 296 294 296 301 291 277 278 280 279 281 282 280 278
227 225 223 222 223 225 226 226 227 229 230 231 234 235 236 239 243 248 252 257 262 263 260 257 259 265 275 285 292 294 293 295 295 292 287 284 282 281 283 283 281 278
227 224 222 221 222 224 225 226 227 228 230 232 235 236 238 241 245 249 253 257 258 255 252 252 257 268 279 287 291 291 291 291 292 293 290 286 284 284 284 285 284 279
233 225 221 220 220 222 224 225 226 227 229 232 235 237 238 241 244 249 253 254 252 251 251 255 265 276 282 284 284 285 287 288 290 290 287 285 285 286 287 289 287 281
246 233 224 220 219 219 222 224 225 226 227 229 232 234 236 239 244 249 252 250 250 252 255 261 271 278 278 277 277 280 283 286 288 289 288 287 288 289 290 289 284 278